Weather in Columbus

United States     39°57′45″N   82°59′47″W
temp.,
°C
wind,
m/s
gust,
m/s
humid.,
%
clouds,
%
prec.,
mm/h
press.,
hPa
HPBL,
m
7 may, fri
fri723:00+11ne137292 0.1 1015148
02:00+9nnw3685100 0.6 1014494
05:00+8nw3793100 2.3 1013658
08:00+7nnw5986100 2.9 1015795
11:00+11nw47525 0.0 10151269
14:00+15wnw473696 0.0 10142668
17:00+12wnw475756 0.2 10131368
20:00+10nw587599 1.4 1013939
8 may, sat
sat823:00+8nw49685 0.0 1015914
02:00+6nw49715 0.0 1016825
05:00+4wnw411750 0.0 1017618
08:00+4nw510685 0.0 1019818
11:00+9nw47526 0.0 10201239
14:00+13nw34405 0.0 10191750
17:00+14wnw343559 0.0 10182037
20:00+12wsw2444100 0.0 1018410
9 may, sun
sun923:00+11sse1251100 0.0 101895
02:00+8ene2487100 1.3 1018298
05:00+6ese51095100 3.9 1015575
08:00+6ese51294100 7.8 1012585
11:00+7sse61995100 16.4 1008899
14:00+15sw71993100 19.0 10041303
17:00+16sw71892100 2.2 10021270
20:00+11nnw51096100 13.4 1005358
10 may, mon
mon1023:00+8n51294100 4.1 1009517
02:00+7n4993100 5.9 1012653
05:00+7n498980 0.0 1014743
08:00+7n488710 0.0 1017584
11:00+11n345928 0.0 10181136
14:00+14nnw564498 0.0 10191715
17:00+14nnw5746100 0.0 10181738
20:00+10nw3655100 0.0 10201146
11 may, tue
tue1123:00+9nnw2665100 0.0 1022378
02:00+7nw37745 0.0 1023297
05:00+5nnw368140 0.0 1024206
08:00+6nnw36780 0.0 1027305
11:00+10nnw46450 0.0 10281201
14:00+13nnw58385 0.0 10272063
17:00+13nnw583753 0.0 10272282
20:00+11n24525 0.0 1027203